Location: Stilling
(56.0622°N, 9.9882°E)
Time: 23:09:53
(UTC+00:00)

Cosmos 1302 Rocket - Pass Details

Date: 13 July 2020
Orbit: 757 x 775 km, 74.0° (Epoch: 14 August)

Event Time Altitude Azimuth Distance (km) Brightness Sun altitude
Rises 22:12:23 0° 331° (NNW) 3,236 9.2 -10.7°
Reaches altitude 10° 22:14:48 10° 335° (NNW) 2,305 8.0 -10.8°
Maximum altitude 22:20:00 65° 57° (ENE) 840 4.3 -11.0°
Enters shadow 22:24:48 12° 139° (SE) 2,153 5.8 -11.2°
